Погода в Барселоне

Испания     41°23′13″N   2°10′12″E
темп.,
°C
ветер,
м/с
пор.,
м/с
влажн.,
%
обл.,
%
осадки,
мм/ч
давл.,
гПа
погр.,
м
12 мая, ср
ср1223:00+14вюв12635 0.0 1019332
02:00+13в12705 0.0 1018209
05:00+13ссз117399 0.0 1016106
08:00+13сз236469 0.0 1016231
11:00+19зюз46325 0.0 10141170
14:00+22зюз711366 0.0 10122097
17:00+22з1013315 0.0 10102247
20:00+21з273710 0.0 10121579
13 мая, чт
чт1323:00+15в24562 0.0 1014252
02:00+14ююв35654 0.0 1014515
05:00+14ююв367448 0.1 1014533
08:00+15ссз2376100 0.4 1013256
11:00+17ссз335762 0.1 10131070
14:00+20вюв244162 0.3 10121525
17:00+19вюв454536 0.0 1011916
20:00+18ююв355652 0.0 1011542
14 мая, пт
пт1423:00+17юз596484 0.1 1011624
02:00+16зсз2662100 0.1 1010432
05:00+14в337378 0.0 1010221
08:00+14в346798 0.1 1011422
11:00+14ю1269100 0.2 1013523
14:00+14ю357376 0.8 1014711
17:00+12в338998 4.4 1015376
20:00+13ююз2380100 4.4 1016481
15 мая, сб
сб1523:00+13юз1180100 0.0 1018132
02:00+12зюз1283100 0.0 1018115
05:00+12ссз2285100 0.0 101760
08:00+13сз127995 0.0 1017152
11:00+18зюз3543100 0.0 1016790
14:00+22ююз5738100 0.0 10151490
17:00+23ююз5744100 0.0 10141207
20:00+20юз4553100 0.0 1015358
16 мая, вс
вс1623:00+18ююв1163100 0.0 101636
02:00+17всв237398 0.0 1016115
05:00+16в22725 0.0 101577
08:00+16всв12670 0.0 1015139
11:00+19юв22550 0.0 1015554
14:00+21юв32558 0.0 1015714
17:00+21ююв33591 0.0 1013569
20:00+20ю236396 0.0 1011395